Torna al catalogo

STARLINK-37235

AttivoComunicazioniVLEO
NORAD 69154·PAYLOAD·🇺🇸 United States

Lanciato May 21, 2026 da Cape Canaveral Space Force Station

Loading…

Prossimi Passaggi (prossime 24 ore)

TLE

AggiornatoSource: CelesTrak SupGP

Epoca: Sep 15, 2026, 03:44 UTC

1 69154C 26111G   26258.15604167 -.00019762  00000+0 -58383-3 0  2583
2 69154  53.1578  90.9175 0000789  91.3908 344.2283 15.34402578    17

Traccia STARLINK-37235 in tempo reale con AllMySat

Download on the App Store